OPS 4682 DEB, 38369

Orbit data source: Space-Track

OPS 4682 DEB, 38369 is space debris in LEO originally from a launch on Sat, 03 Apr 1965 UTC launched from the Air Force Western Test Range (AFWTR). Debris objects in space refer to the collection of defunct objects orbiting the Earth. Examples of debris include non-operational satellites, rocket bodies, and fragments generated from explosions, collisions, or faulty payload assembly.

Loading next visibility...
Identifier
38369, 1965-027BW
Orbit
LEO
Country
Flag of USUS
Related business
Manufacturer
Unknown
Mission
Spacecraft
Bus & Motor
Unknown
Mass
Unknown
Launch date (UTC)
1965-04-03 (61 years ago)
Launch vehicle
Unknown
Launch site
Air Force Western Test Range (AFWTR)
Object type
Payload
Rocket body
Debris
Shape & HBR
Unknown shape, 0.1 m
Radar Cross Section
Small (<0.1 m²)

Expand to show TLE details & history
Last TLE update: 4 days ago

TLE from 4 days ago
0 OPS 4682 DEB
1 38369U 65027BW  25290.18975181  .00000813  00000-0  27409-2 0  9993
2 38369  90.2420   0.9867 0026527 324.0559  35.8777 12.98309179521495
Epoch: 2025-10-17T04:33Z
TLE epoch observation values (Epoch: 2025-10-17T04:33:14.556Z)
Latitude
-0.00003°
Longitude
-93.26264°
Altitude
1,255.179 km
Speed
7.235 km/s
True Right ascension
00h 03m 56s
True Declination
0° 00' 00"
Sunlit
Object was in full shadow at epoch
Visualization orbit readout
Latitude
Unknown
Longitude
Unknown
Altitude
Unknown
Speed
Unknown
Apparent Right ascension
Unknown
Apparent Declination
Unknown
Sunlit
N/A
Visualization observer readout
Local Sidereal Time
03:26:44
Azimuth
Unknown
Elevation
Unknown
Doppler factor
Unknown
Orbital elements
Apogee altitude
1,286.125 km
Perigee altitude
1,245.571 km
Semi-major axis
7,643.985 km
Eccentricity
0.00265
Inclination
90.242°
RAAN
0.9867°
Arg. of periapsis
324.0559°
True anomaly
36.05633°
Mean anomaly
35.8777°
Eccentric anomaly
35.96697°
Mean motion
3.24761 °/min
Orbital period
110.85 mins
BSTAR
0.0027409
Loading maneuver chart data...
Computing Atmospheric mass density...
Loading historical data...
Loading historical data...
Loading historical data...
Loading historical data...
Loading historical data...
Loading historical data...
Loading historical data...

Documentation

Showing up to 5 results
|